Temp
-1 -1 -1 -1 -1 -1 -1 -2 -0 -0 -1 -0 0 1 2 3 4 4 5 5 5 4 5 4 5 6 13 14 13 12 14 14 13 16 19 18 18 17 17 12 12 14 14 16
-1 -1 -1 -1 -1 -1 -1 -2 -1 -1 -1 0 0 1 1 2 3 4 4 4 6 6 4 3 3 4 6 3 5 12 14 11 10 13 15 17 16 17 18 16 12 12 12 14
-1 -1 -1 -1 -1 -1 -1 -2 -0 -2 -1 0 2 1 1 1 2 4 4 4 5 4 3 4 2 4 6 5 4 4 4 9 11 12 14 15 13 16 17 16 12 13 14 16
-1 -1 -1 -1 -0 -1 -1 -2 -0 1 -0 -1 1 2 2 1 1 3 4 4 4 4 3 3 3 5 7 7 7 5 3 8 10 12 15 16 16 16 16 17 15 14 16 18
-0 -0 -0 -0 -0 -1 -1 -1 -1 0 3 3 2 2 1 1 3 3 3 3 4 5 4 5 3 5 6 6 7 4 3 6 9 9 13 14 15 17 17 16 17 17 17 17
-1 -0 -0 -0 -0 -1 -1 -1 -1 -1 2 2 3 3 2 2 4 3 4 4 4 4 5 6 5 6 5 5 4 4 3 3 5 8 11 12 10 13 16 17 17 17 16 18
-0 -0 -0 0 0 -1 -1 -1 -1 -1 1 2 3 3 3 3 3 3 4 4 3 4 4 3 4 4 5 5 5 5 3 4 4 5 7 9 10 14 15 15 16 18 18 19
-0 -0 -0 -0 -0 -0 -1 -1 -1 -1 0 2 3 3 3 3 3 4 4 4 4 3 1 2 2 3 2 3 3 5 3 3 5 6 9 11 13 13 13 13 14 17 17 18
-1 -1 -0 -0 -0 -0 -1 -1 -1 -1 -1 1 2 3 3 2 2 2 3 3 3 1 1 1 2 3 6 6 4 6 6 5 5 5 6 10 15 17 16 15 11 16 17 17
-1 -1 -0 -0 -0 -0 -1 -1 -1 -1 -1 -1 1 2 2 2 2 2 4 2 2 1 1 2 3 4 6 5 7 7 5 5 5 5 6 12 17 16 15 10 13 15 15 16
-0 -0 -0 0 0 0 -1 -1 -1 -1 -1 -1 -0 1 0 2 1 1 3 2 1 1 2 2 4 4 6 6 8 8 7 6 7 6 7 8 13 13 13 13 12 15 14 14
-0 -0 0 0 0 -0 -1 -1 -1 -1 -1 -1 -1 -0 0 1 1 1 1 2 4 3 3 4 5 5 6 6 6 7 7 6 8 6 7 8 12 14 13 10 12 12 14 14
0 0 1 1 1 1 0 -1 -1 -1 -1 -1 -1 -1 1 -0 -1 -1 -0 0 2 1 4 4 5 5 8 7 8 9 8 6 7 6 7 6 6 10 9 9 9 10 11 11
1 1 1 1 1 1 1 -0 -0 -1 -1 -0 2 1 0 1 -1 -1 -1 -1 2 3 3 3 3 4 3 6 6 8 9 8 8 8 8 8 7 8 7 7 8 9 8 9
1 1 1 2 2 1 0 0 -1 -1 -1 1 1 0 0 0 0 -0 -1 -1 -0 1 2 2 3 5 4 4 3 5 7 9 8 10 10 8 9 8 8 8 8 7 7 7
1 2 2 2 2 1 -0 -1 -1 -1 -1 -1 2 0 -0 -0 0 0 -0 -0 -0 0 1 2 3 5 5 5 6 9 8 8 8 9 8 8 8 8 8 8 9 7 7 7
1 2 2 3 2 1 -0 1 1 -0 -1 -1 2 2 -0 -0 0 0 0 -0 -0 0 1 1 3 3 3 4 6 10 8 7 7 7 7 6 6 8 7 7 6 8 6 6
1 2 3 3 2 1 -0 1 1 -0 -1 -1 2 3 1 -1 -1 -0 -1 -1 -1 -1 1 0 2 2 3 4 8 8 7 6 6 6 7 8 7 6 5 5 6 5 5 5
2 3 3 2 1 1 1 1 -0 -1 -1 1 1 2 3 -1 -1 -1 -1 -1 1 -0 2 2 1 3 4 6 6 5 6 6 7 6 6 6 6 6 6 6 6 5 4 4
2 2 1 2 1 2 2 -0 -0 -0 -1 -1 2 1 2 -0 1 1 1 0 2 2 2 0 2 4 4 3 3 3 4 5 5 5 6 6 5 5 6 6 5 4 4 4
-0 0 0 1 1 1 1 1 3 1 1 2 0 -0 1 -0 2 2 1 2 3 3 3 3 4 5 3 1 0 1 2 4 4 4 4 4 4 4 4 3 4 5 6 5
-3 -3 -2 -2 -1 2 2 2 3 2 2 1 1 1 0 -0 -1 1 1 2 3 3 4 3 4 3 1 -0 -1 -1 0 0 1 1 1 1 1 2 2 1 2 4 6 5
-1 -2 -1 0 1 1 1 1 2 2 1 1 1 1 1 1 1 2 3 2 3 3 2 4 4 2 1 -1 -1 -1 -0 -0 0 -0 0 1 1 2 5 5 4 3 3 2
-1 1 1 1 1 2 3 3 2 1 0 1 1 2 2 2 2 2 2 2 3 2 2 3 3 2 0 -1 -1 -0 -0 0 -0 1 1 2 3 3 2 2 2 1 1 -0
0 1 1 1 2 0 0 -1 -1 -0 -0 1 2 2 2 3 2 2 2 2 2 3 3 3 2 1 -0 -1 -2 -2 -2 -1 -0 -1 0 1 1 1 0 -0 -0 -0 -0 -0
-1 0 0 -1 -0 0 -2 -1 0 0 -2 -0 1 3 2 2 2 3 2 3 3 3 2 -1 -1 -1 -1 -1 -2 -1 -1 -1 -1 -0 -0 -1 -1 -1 -1 -2 -2 -2 -2 -2
1 0 -3 -0 -1 2 0 0 1 -1 1 2 3 2 3 3 3 3 3 3 3 0 -2 -2 -2 -2 -2 -3 -2 -2 -2 -3 -2 -2 -2 -2 -2 -3 -3 -4 -4 -4 -5 -5
Height
1416 1417 1419 1421 1423 1427 1428 1430 1430 1429 1432 1438 1434 1429 1429 1431 1427 1427 1425 1422 1418 1419 1413 1409 1401 1390 1370 1376 1383 1384 1379 1383 1380 1375 1367 1377 1381 1385 1389 1414 1418 1405 1401 1386
1410 1411 1413 1415 1418 1422 1425 1426 1426 1427 1430 1426 1425 1426 1427 1427 1426 1423 1421 1419 1412 1412 1412 1412 1408 1400 1393 1394 1393 1379 1378 1381 1386 1379 1377 1369 1370 1370 1372 1383 1398 1399 1404 1383
1404 1406 1407 1409 1412 1416 1421 1423 1421 1424 1423 1418 1418 1418 1420 1423 1420 1417 1416 1414 1415 1411 1409 1411 1409 1400 1393 1393 1398 1397 1398 1369 1366 1359 1353 1358 1376 1365 1362 1368 1389 1380 1379 1361
1398 1400 1402 1404 1406 1410 1415 1416 1412 1411 1411 1414 1415 1414 1413 1414 1415 1411 1409 1405 1406 1406 1404 1404 1406 1399 1384 1388 1391 1396 1396 1366 1362 1350 1348 1347 1350 1353 1354 1353 1359 1368 1353 1351
1393 1395 1396 1398 1401 1406 1408 1409 1409 1407 1402 1401 1405 1406 1406 1407 1403 1405 1404 1403 1399 1397 1395 1392 1395 1390 1383 1381 1384 1391 1394 1374 1359 1353 1342 1345 1338 1333 1339 1343 1339 1341 1344 1342
1390 1391 1392 1394 1397 1400 1399 1401 1402 1403 1396 1396 1395 1392 1395 1395 1396 1397 1396 1394 1393 1390 1382 1383 1385 1383 1383 1381 1379 1383 1390 1391 1376 1346 1342 1342 1347 1339 1327 1325 1328 1331 1332 1316
1388 1388 1388 1389 1391 1393 1394 1394 1398 1397 1387 1388 1384 1385 1387 1387 1388 1387 1386 1387 1389 1381 1388 1386 1380 1375 1372 1371 1368 1376 1378 1375 1372 1361 1353 1330 1322 1321 1327 1326 1318 1319 1317 1309
1386 1386 1386 1386 1387 1388 1388 1388 1391 1390 1382 1380 1377 1378 1378 1378 1378 1377 1377 1376 1380 1383 1388 1384 1379 1372 1370 1362 1359 1358 1366 1372 1363 1350 1326 1315 1305 1303 1314 1318 1306 1305 1308 1298
1386 1385 1384 1383 1382 1382 1381 1380 1382 1382 1376 1360 1369 1370 1370 1367 1368 1368 1363 1367 1373 1378 1376 1374 1364 1352 1340 1336 1338 1336 1345 1353 1356 1349 1342 1310 1277 1284 1293 1306 1315 1281 1302 1297
1383 1381 1380 1379 1377 1376 1376 1372 1373 1372 1361 1352 1362 1357 1356 1359 1359 1353 1354 1357 1361 1365 1361 1356 1350 1341 1336 1331 1319 1324 1329 1335 1333 1338 1340 1293 1273 1276 1287 1314 1291 1278 1284 1286
1379 1376 1373 1370 1368 1367 1367 1362 1363 1361 1348 1341 1348 1344 1345 1345 1347 1344 1342 1348 1347 1353 1350 1345 1336 1332 1321 1316 1310 1308 1310 1313 1315 1321 1320 1304 1284 1285 1285 1279 1280 1279 1277 1275
1373 1370 1367 1363 1360 1358 1357 1352 1352 1351 1344 1330 1330 1326 1325 1328 1326 1332 1332 1331 1331 1335 1334 1329 1324 1322 1317 1314 1307 1304 1310 1310 1295 1299 1294 1291 1284 1281 1279 1284 1284 1279 1274 1275
1366 1363 1359 1355 1352 1350 1349 1344 1342 1339 1332 1323 1317 1309 1305 1309 1309 1317 1320 1319 1325 1325 1324 1321 1317 1312 1303 1296 1291 1289 1293 1301 1297 1298 1285 1287 1289 1285 1284 1282 1288 1280 1276 1277
1358 1355 1351 1347 1342 1339 1338 1335 1333 1327 1324 1317 1301 1299 1297 1295 1296 1300 1304 1313 1316 1318 1319 1317 1314 1308 1308 1294 1293 1284 1283 1290 1288 1282 1280 1283 1282 1283 1288 1287 1286 1283 1278 1278
1351 1347 1343 1338 1333 1330 1328 1325 1319 1317 1320 1309 1300 1294 1288 1288 1289 1290 1296 1303 1309 1311 1312 1310 1308 1304 1307 1300 1299 1287 1282 1279 1279 1266 1269 1275 1279 1279 1280 1283 1286 1285 1282 1283
1343 1339 1334 1329 1325 1322 1323 1319 1315 1315 1314 1309 1296 1289 1284 1283 1281 1284 1290 1295 1302 1306 1304 1303 1301 1297 1297 1290 1283 1276 1276 1275 1270 1268 1270 1268 1272 1274 1275 1278 1284 1283 1285 1287
1336 1331 1325 1320 1317 1315 1317 1314 1313 1312 1309 1305 1294 1283 1284 1281 1279 1282 1286 1291 1294 1300 1300 1299 1298 1297 1293 1286 1274 1266 1267 1267 1268 1268 1266 1269 1272 1272 1277 1279 1280 1280 1284 1288
1328 1323 1317 1311 1309 1309 1309 1308 1308 1307 1304 1300 1290 1280 1282 1282 1280 1282 1285 1288 1291 1292 1293 1292 1288 1289 1287 1277 1264 1266 1270 1269 1265 1265 1265 1269 1273 1273 1274 1278 1277 1282 1287 1287
1321 1316 1310 1308 1307 1306 1305 1303 1303 1302 1304 1294 1289 1283 1276 1283 1282 1282 1283 1283 1284 1287 1284 1284 1286 1277 1268 1261 1261 1262 1262 1260 1260 1265 1269 1272 1274 1273 1274 1278 1283 1284 1290 1292
1315 1310 1309 1305 1304 1302 1301 1299 1300 1299 1295 1292 1286 1286 1280 1284 1280 1280 1281 1281 1278 1276 1280 1281 1277 1265 1264 1265 1264 1262 1260 1260 1265 1266 1269 1271 1272 1274 1274 1277 1284 1288 1292 1296
1314 1311 1307 1302 1300 1298 1297 1296 1295 1295 1289 1288 1287 1286 1282 1282 1278 1276 1279 1274 1274 1269 1272 1272 1263 1257 1263 1265 1264 1263 1262 1262 1264 1265 1266 1268 1269 1274 1277 1279 1287 1293 1296 1301
1315 1313 1307 1302 1299 1296 1294 1291 1291 1289 1286 1287 1285 1285 1284 1282 1280 1277 1278 1273 1271 1267 1271 1270 1259 1261 1266 1266 1267 1266 1266 1267 1267 1268 1269 1272 1277 1281 1283 1285 1291 1295 1300 1306
1308 1307 1305 1300 1296 1294 1290 1289 1284 1284 1287 1287 1286 1284 1283 1281 1280 1276 1274 1271 1268 1271 1269 1259 1257 1266 1268 1269 1269 1269 1269 1271 1272 1273 1275 1279 1282 1285 1287 1292 1297 1302 1307 1311
1306 1301 1297 1292 1287 1284 1281 1281 1283 1286 1287 1286 1285 1283 1281 1279 1276 1275 1273 1272 1271 1268 1265 1259 1262 1267 1270 1272 1272 1273 1274 1274 1277 1279 1283 1285 1288 1292 1296 1299 1303 1306 1309 1314
1301 1297 1289 1282 1280 1282 1283 1284 1285 1285 1285 1285 1282 1281 1280 1275 1275 1274 1272 1271 1266 1262 1261 1264 1268 1271 1273 1275 1276 1276 1277 1279 1282 1284 1286 1289 1293 1296 1299 1303 1307 1310 1312 1316
1295 1287 1281 1281 1280 1279 1282 1282 1281 1281 1282 1283 1282 1277 1276 1274 1273 1270 1268 1265 1264 1264 1268 1273 1273 1274 1276 1278 1280 1281 1283 1285 1287 1290 1293 1295 1298 1301 1303 1307 1310 1312 1315 1317
1281 1274 1273 1274 1273 1271 1274 1275 1277 1278 1280 1277 1276 1276 1271 1272 1269 1266 1265 1264 1267 1272 1274 1274 1274 1276 1278 1280 1282 1286 1289 1291 1293 1295 1297 1299 1302 1304 1306 1309 1311 1314 1317 1319
Wind_Speed
20 19 18 16 14 10 12 9 4 12 20 9 6 12 6 12 14 15 18 20 21 20 20 14 9 5 19 24 33 30 36 15 26 30 24 29 32 30 29 13 15 20 22 22
19 18 18 18 16 15 13 6 6 12 21 8 11 6 5 17 15 15 11 15 18 16 13 5 9 8 5 26 19 23 26 17 21 20 26 18 25 28 30 28 8 20 18 21
17 16 15 15 16 17 19 6 4 7 22 20 15 14 15 14 15 18 22 21 19 21 20 18 12 19 14 15 22 31 20 19 22 25 26 26 21 30 31 29 19 22 23 31
15 15 16 16 16 17 21 12 6 9 5 12 18 14 7 13 12 16 16 11 19 20 16 13 16 23 29 26 25 11 9 9 26 32 31 29 33 31 36 35 34 29 32 36
13 16 17 16 16 17 24 9 6 9 16 15 19 20 18 21 21 18 14 18 19 18 18 18 17 21 17 19 11 13 5 10 22 25 32 34 35 31 32 37 38 36 38 37
11 13 15 16 17 19 18 20 18 7 11 16 16 17 21 21 22 22 28 23 19 19 25 25 25 25 24 20 18 12 12 6 7 21 31 29 24 30 35 36 34 37 34 40
8 9 12 15 18 22 23 21 15 8 10 14 16 16 19 22 23 23 25 24 20 33 26 26 26 27 25 24 22 15 15 14 7 12 16 20 23 29 30 36 32 33 35 39
5 6 9 12 15 19 26 24 25 12 11 16 20 25 25 27 32 25 24 34 34 26 14 10 11 9 9 16 24 22 18 12 5 5 10 11 18 26 31 31 38 39 35 38
7 7 7 9 12 16 22 30 32 24 9 18 33 22 28 18 16 18 27 36 27 20 6 8 11 10 8 7 5 25 25 24 12 13 12 19 28 21 25 22 25 39 33 39
13 15 16 16 16 16 19 26 29 30 18 33 26 15 16 29 22 14 15 6 16 26 8 11 12 14 10 12 14 7 6 9 17 17 11 13 11 5 17 14 11 16 30 30
18 19 22 21 22 24 25 32 31 33 21 39 38 39 40 33 24 15 12 12 12 7 10 7 7 10 12 12 15 9 8 4 9 12 18 24 6 15 21 14 4 6 17 27
20 20 22 22 21 19 19 30 29 32 38 25 23 39 51 50 50 36 25 13 7 13 8 7 6 8 8 17 13 9 8 7 4 1 3 12 10 8 18 5 9 9 13 20
22 23 24 26 24 24 23 29 32 29 31 30 31 30 42 45 52 48 20 15 26 9 21 5 7 9 9 12 15 12 10 8 5 4 11 16 13 15 7 6 12 7 4 5
24 25 27 28 28 23 24 26 28 29 9 4 9 13 18 26 29 38 46 36 20 30 21 5 4 6 1 5 6 10 6 11 11 7 6 5 9 16 6 7 8 2 1 4
25 25 28 30 26 21 19 23 25 18 11 3 7 16 22 20 18 25 37 35 27 11 9 4 6 8 7 4 1 5 7 11 7 6 9 5 8 11 12 9 6 1 7 9
25 26 29 31 24 17 14 7 6 11 10 7 3 5 6 10 12 22 31 34 23 16 5 2 6 17 6 5 6 12 16 17 12 1 4 7 6 10 19 21 15 7 7 11
26 27 30 29 21 14 11 6 11 17 11 5 3 3 2 6 5 7 17 22 14 16 5 5 5 3 6 3 12 7 6 11 14 8 4 1 9 7 14 14 12 14 14 14
26 27 28 21 11 10 16 19 17 12 8 6 3 2 1 5 2 2 6 8 8 9 5 3 3 6 4 6 12 13 10 8 9 12 11 11 9 12 16 17 19 19 19 22
25 24 19 7 4 4 4 8 17 17 8 3 2 3 2 3 1 3 2 4 4 6 3 3 4 3 6 5 7 11 11 8 6 11 9 13 18 22 20 20 19 23 21 23
21 12 4 4 3 12 14 0 4 4 4 4 2 2 2 2 2 2 3 2 2 4 2 2 3 4 5 5 6 7 9 10 11 14 15 18 18 19 18 18 18 22 22 25
10 7 4 10 13 3 3 3 3 2 3 1 2 2 3 0 3 1 2 2 3 3 3 3 3 3 2 2 3 4 2 4 9 10 10 13 16 19 21 19 23 28 26 25
14 18 20 10 4 3 3 2 2 4 2 2 4 3 4 2 2 2 3 2 3 2 3 2 3 2 2 3 2 3 5 5 6 11 17 17 20 19 19 21 22 20 18 21
10 3 4 4 2 3 4 3 3 2 1 1 3 2 2 3 4 3 2 3 1 2 3 2 2 5 4 4 4 4 11 8 12 16 19 23 21 21 20 19 19 19 20 20
4 4 5 4 4 4 3 3 1 1 3 5 6 3 2 1 2 1 2 0 2 2 3 1 3 8 6 5 5 7 7 6 11 16 15 19 22 21 19 21 21 21 21 20
5 4 5 6 2 2 3 3 2 4 4 5 3 4 3 1 2 1 1 2 3 2 2 2 3 9 9 8 8 10 12 15 13 14 18 19 19 19 20 17 17 16 16 16
6 8 4 3 3 5 5 8 6 5 2 3 4 2 2 2 1 2 2 2 1 1 2 2 5 8 10 11 11 12 12 12 14 15 15 16 17 18 18 16 13 11 11 15
6 5 7 9 4 2 7 10 8 7 4 2 2 3 2 1 3 2 2 1 2 2 2 2 5 10 12 12 15 17 16 16 16 16 15 15 14 13 13 11 10 13 14 17
Wind_Direction
265 263 260 259 253 224 225 204 214 193 177 186 208 234 229 260 259 254 253 263 264 267 285 292 276 298 241 208 213 215 224 233 245 235 220 221 221 212 211 214 208 222 230 253
263 263 254 251 243 221 206 205 202 183 183 219 223 220 240 248 253 251 244 247 258 258 273 282 328 348 315 324 353 227 221 220 239 242 246 220 221 217 219 213 225 219 214 241
260 251 248 242 236 221 210 194 196 177 210 227 241 233 234 236 245 252 249 257 266 272 271 264 281 289 289 298 306 316 311 237 214 231 220 222 234 227 220 214 218 224 216 238
252 250 247 245 231 220 206 208 230 205 199 226 224 231 236 228 234 236 241 246 243 253 266 261 254 263 272 277 275 295 315 240 219 240 240 247 221 222 224 225 218 221 228 231
251 245 244 240 229 207 207 200 201 226 249 233 221 233 233 239 246 242 246 249 263 262 264 264 265 265 273 275 262 280 304 299 234 240 243 239 244 240 226 229 228 230 235 243
264 251 244 238 229 212 211 216 232 247 246 237 244 240 233 244 250 251 246 254 261 262 255 275 276 275 279 268 278 262 257 253 305 235 237 244 247 237 240 232 232 231 233 235
282 266 251 241 231 225 222 220 213 213 243 242 244 245 242 244 244 250 252 247 244 253 275 286 284 279 267 258 259 250 254 252 241 266 278 227 236 240 239 241 247 240 237 245
329 295 270 255 244 236 235 230 218 222 249 251 255 251 252 259 259 253 255 252 250 268 277 261 257 241 240 242 239 233 222 236 260 251 257 253 248 225 216 221 240 237 239 245
357 346 322 292 269 252 243 242 242 229 249 236 246 252 249 246 245 252 249 257 251 240 220 229 243 245 254 221 227 209 212 214 215 255 276 243 247 219 210 222 240 241 234 243
324 317 306 293 283 274 260 251 245 232 248 255 248 244 244 244 244 251 255 251 228 220 217 222 231 235 230 239 242 209 189 208 219 229 236 257 233 196 164 185 242 229 223 235
320 316 315 297 279 271 261 262 259 237 248 254 249 249 243 246 238 235 235 222 203 198 220 218 204 235 229 243 237 226 228 236 231 214 219 244 188 163 174 202 191 223 207 211
312 313 319 311 284 277 270 261 264 270 246 258 252 253 251 242 238 234 233 224 187 208 210 217 215 219 216 232 239 200 219 228 279 120 275 341 214 182 208 0 294 245 213 209
307 310 316 321 303 273 262 275 280 267 248 258 254 253 266 253 241 236 228 213 214 213 218 229 229 240 236 231 228 220 200 176 244 190 219 225 247 259 286 284 284 290 256 200
306 309 314 317 315 287 269 268 289 265 237 261 276 268 258 260 251 237 226 226 226 223 226 230 237 254 62 262 295 273 267 169 211 237 218 215 219 214 268 306 283 244 165 186
307 309 313 317 314 297 266 279 293 235 218 282 285 283 280 256 244 233 220 216 217 225 221 213 225 243 246 247 266 249 210 212 203 237 164 164 269 191 224 257 287 188 148 144
308 311 314 317 309 289 263 295 289 225 276 286 273 261 271 309 239 218 209 210 203 207 204 197 251 251 228 221 244 253 220 233 243 338 188 196 225 241 214 198 204 156 149 159
310 313 312 312 303 252 213 231 294 309 296 247 260 242 293 348 146 182 200 203 204 214 231 232 237 226 220 253 244 262 269 245 244 228 162 196 207 189 191 179 159 161 141 142
312 314 311 310 293 241 248 268 251 300 292 244 266 263 223 8 37 117 147 160 170 199 214 234 231 174 203 250 247 251 256 263 231 237 228 257 208 159 150 153 141 132 131 132
317 314 311 284 231 211 238 271 271 274 259 280 268 296 348 357 100 127 127 161 181 163 213 201 194 187 222 250 282 280 275 256 258 201 206 190 177 154 141 142 146 128 128 129
324 320 297 244 210 284 295 184 192 221 240 241 269 293 260 318 185 145 168 198 164 196 163 157 230 247 277 310 308 298 280 240 219 187 176 166 161 154 142 137 136 138 133 135
345 328 284 284 309 287 214 219 224 245 236 268 331 312 304 341 270 119 288 177 181 217 138 249 217 234 185 341 328 355 12 179 202 218 200 182 160 149 140 133 150 145 142 145
301 294 289 297 287 242 237 228 222 232 312 344 320 350 326 315 288 245 195 232 213 213 145 236 249 87 130 106 90 94 136 128 137 151 139 140 142 140 140 135 136 141 158 169
305 245 249 238 225 234 219 203 210 243 223 301 328 307 267 245 234 263 244 229 224 143 217 243 350 123 116 114 110 72 100 106 129 118 130 135 133 138 143 152 164 166 163 162
251 238 249 224 203 231 205 221 190 36 255 292 299 268 279 285 245 278 251 83 215 242 229 257 140 148 125 116 106 100 109 129 99 122 136 140 149 150 153 156 159 162 158 158
247 220 239 217 214 194 174 174 210 214 263 286 263 250 257 255 255 270 253 228 241 269 20 51 90 139 136 123 108 110 118 142 145 140 143 142 145 146 144 149 155 164 167 174
231 227 237 203 212 192 198 202 223 196 231 277 245 268 248 232 267 233 239 254 251 68 39 61 134 141 141 137 128 130 132 133 135 141 146 146 149 151 150 151 157 167 177 171
224 230 224 211 272 226 189 188 196 180 189 234 262 247 270 280 231 210 220 279 40 57 83 112 145 153 144 140 138 135 137 136 139 142 146 148 150 152 153 155 159 161 163 162